Weather Roundup
Issued by NWS Springfield, MO

Home | Current Version | Previous Version | Text Only | Print | Product List | Glossary On
Versions: 1 2 3 4 5 6 7 8 9 10 11 12 13 14 15 16 17 18 19 20 21 22 23 24 25 26 27 28 29 30 31 32 33 34 35 36 37 38 39 40 41 42 43 44 45 46 47 48 49 50
000
NZUS99 KSGF 262057
HRRSGF

HOURLY WEATHER
NATIONAL WEATHER SERVICE SPRINGFIELD MO
400 PM CDT WED APR 26 2017

......SGF CWA......

CITY           SKY/WX    TMP DP  RH WIND       PRES   REMARKS
SPRINGFIELD    LGT RAIN  48  47  96 NW10      29.53S FOG
JOPLIN         CLOUDY    47  44  90 N13       29.60S
WEST PLAINS    RAIN      58  56  93 VRB7G16   29.50R FOG
ROLLA          FOG       52  52 100 NW9       29.48F VSB<1/4
BRANSON        LGT RAIN  50  50 100 NW9       29.53R VSB 1

......SURROUNDING SGF CWA......

CITY           SKY/WX    TMP DP  RH WIND       PRES   REMARKS
CHANUTE        CLOUDY    47  40  76 NW13      29.63F
PARSONS        CLOUDY    47  41  80 NW10      29.65R
COFFEYVILLE    CLOUDY    48  40  73 NW14      29.65R
EMPORIA        CLOUDY    51  38  60 NW15G22   29.64R
HARRISON AR    LGT RAIN  52  52 100 NW9G18    29.50F FOG

......KANSAS AND MISSOURI......

CITY           SKY/WX    TMP DP  RH WIND       PRES   REMARKS
KANSAS CTY INT CLOUDY    49  39  68 N12       29.60S
SEDALIA        RAIN      46  46 100 NW14      29.57F FOG
ST JOSEPH      CLOUDY    50  39  66 N17       29.61F
ST LOUIS       NOT AVBL
WICHITA        CLOUDY    55  38  52 NW17G25   29.67F
TOPEKA         CLOUDY    50  38  63 N15G22    29.63S
OLATHE         CLOUDY    46  40  79 N9        29.61R

......TENNESSEE......

CITY           SKY/WX    TMP DP  RH WIND       PRES   REMARKS
MEMPHIS        NOT AVBL
NASHVILLE      MOSUNNY   83  55  38 S18G24    29.65F

......ARKANSAS.......

CITY           SKY/WX    TMP DP  RH WIND       PRES   REMARKS
FAYETTEVILLE   LGT RAIN  49  49 100 NW9       29.57F FOG
FT SMITH       CLOUDY    54  49  83 NW14      29.55F
LITTLE ROCK    TSTM      62  62 100 VRB5      29.51R VSB 1

......OKLAHOMA.......

CITY           SKY/WX    TMP DP  RH WIND       PRES   REMARKS
TULSA          CLOUDY    51  44  77 NW15G23   29.64S
MCALESTER      CLOUDY    53  47  79 N13       29.64R
OKLAHOMA CITY  PTSUNNY   55  42  61 N16G23    29.68F

......IOWA............

CITY           SKY/WX    TMP DP  RH WIND       PRES   REMARKS
DES MOINES     NOT AVBL
QUAD CITIES    CLOUDY    52  47  83 W10       29.52F

......ILLINOIS........

CITY           SKY/WX    TMP DP  RH WIND       PRES   REMARKS
QUINCY         NOT AVBL
CHICAGO        CLOUDY    72  55  55 SW9G21    29.47F




USA.gov is the U.S. government's official web portal to all federal, state and local government web resources and services.